| time (UTC) | temp F | wind direction | speed MPH | gust MPH | rain 1hr in | rain 24hr in | rain mn in | humidity % | barometer mb |
| 20260504184526 | 67 | 223 | 5.0 | 16.0 | 0.00 | 0.00 | 0.00 | 38 | 1004.1 |
| 20260504183024 | 66 | 144 | 9.0 | 19.0 | 0.00 | 0.00 | 0.00 | 40 | 1004.2 |
| 20260504181527 | 65 | 183 | 8.0 | 22.0 | 0.00 | 0.00 | 0.00 | 41 | 1004.2 |
| 20260504180050 | 65 | 202 | 5.0 | 17.0 | 0.00 | 0.00 | 0.00 | 41 | 1004.2 |
| 20260504174549 | 64 | 193 | 8.0 | 20.0 | 0.00 | 0.00 | 0.00 | 43 | 1004.3 |
| 20260504173045 | 65 | 175 | 10.0 | 23.0 | 0.00 | 0.00 | 0.00 | 41 | 1004.3 |
| 20260504171542 | 64 | 196 | 12.0 | 20.0 | 0.00 | 0.00 | 0.00 | 42 | 1004.4 |
| 20260504081553 | 45 | 123 | 1.0 | 3.0 | 0.00 | 0.00 | 0.00 | 62 | 1007.6 |
| 20260504050011 | 46 | 150 | 0.0 | 0.0 | 0.00 | 0.00 | 0.00 | 69 | 1007.8 |
| 20260504044507 | 47 | 151 | 0.0 | 0.0 | 0.00 | 0.00 | 0.00 | 68 | 1008.0 |
| 20260504043009 | 47 | 152 | 0.0 | 0.0 | 0.00 | 0.00 | 0.00 | 67 | 1008.1 |
| 20260504041509 | 48 | 156 | 0.0 | 0.0 | 0.00 | 0.00 | 0.00 | 65 | 1008.2 |
| 20260504040004 | 48 | 161 | 0.0 | 2.0 | 0.00 | 0.00 | 0.00 | 63 | 1008.4 |
| 20260504034503 | 48 | 244 | 0.0 | 3.0 | 0.00 | 0.00 | 0.00 | 62 | 1008.7 |
| 20260504033002 | 48 | 200 | 0.0 | 1.0 | 0.00 | 0.00 | 0.00 | 62 | 1008.8 |
| 20260504031540 | 48 | 309 | 1.0 | 4.0 | 0.00 | 0.00 | 0.00 | 61 | 1008.7 |
| 20260504030034 | 48 | 255 | 2.0 | 7.0 | 0.00 | 0.00 | 0.00 | 60 | 1008.8 |
| 20260504024528 | 47 | 203 | 0.0 | 3.0 | 0.00 | 0.00 | 0.00 | 61 | 1008.8 |
| 20260504023029 | 45 | 159 | 3.0 | 7.0 | 0.00 | 0.00 | 0.00 | 66 | 1008.9 |
| 20260504021526 | 43 | 167 | 1.0 | 4.0 | 0.00 | 0.00 | 0.00 | 70 | 1008.8 |
| 20260504020026 | 43 | 9 | 0.0 | 0.0 | 0.00 | 0.00 | 0.00 | 69 | 1008.7 |
| 20260504014525 | 43 | 9 | 0.0 | 0.0 | 0.00 | 0.00 | 0.00 | 68 | 1008.5 |
| 20260504013033 | 43 | 26 | 0.0 | 0.0 | 0.00 | 0.00 | 0.00 | 66 | 1008.6 |
| 20260504011522 | 44 | 310 | 0.0 | 1.0 | 0.00 | 0.00 | 0.00 | 65 | 1008.8 |
| 20260504010020 | 45 | 311 | 0.0 | 1.0 | 0.00 | 0.00 | 0.00 | 64 | 1008.6 |
| 20260504004519 | 45 | 311 | 0.0 | 2.0 | 0.00 | 0.00 | 0.00 | 61 | 1008.4 |
| 20260504003015 | 46 | 263 | 0.0 | 2.0 | 0.00 | 0.00 | 0.00 | 58 | 1008.2 |
| 20260504001514 | 48 | 268 | 0.0 | 3.0 | 0.00 | 0.00 | 0.00 | 54 | 1008.1 |
| 20260504000035 | 49 | 252 | 0.0 | 2.0 | 0.00 | 0.00 | 0.00 | 51 | 1008.0 |
| 20260503234512 | 50 | 311 | 0.0 | 5.0 | 0.00 | 0.00 | 0.00 | 50 | 1007.9 |
| 20260503233010 | 50 | 293 | 0.0 | 11.0 | 0.00 | 0.00 | 0.00 | 49 | 1007.8 |
| 20260503231509 | 50 | 20 | 8.0 | 14.0 | 0.00 | 0.00 | 0.00 | 49 | 1007.9 |
| 20260503230008 | 50 | 234 | 4.0 | 9.0 | 0.00 | 0.00 | 0.00 | 49 | 1008.0 |
| 20260503224506 | 50 | 292 | 2.0 | 11.0 | 0.00 | 0.00 | 0.00 | 48 | 1007.9 |
| 20260503223039 | 51 | 337 | 1.0 | 14.0 | 0.00 | 0.00 | 0.00 | 46 | 1007.9 |
| 20260503221547 | 50 | 332 | 6.0 | 16.0 | 0.00 | 0.00 | 0.00 | 46 | 1007.8 |
| 20260503220004 | 50 | 312 | 6.0 | 14.0 | 0.00 | 0.00 | 0.00 | 44 | 1007.9 |
| 20260503214503 | 50 | 277 | 5.0 | 12.0 | 0.00 | 0.00 | 0.00 | 43 | 1007.8 |
| 20260503213001 | 51 | 267 | 5.0 | 17.0 | 0.00 | 0.00 | 0.00 | 41 | 1007.7 |
| 20260503211620 | 51 | 349 | 8.0 | 18.0 | 0.00 | 0.00 | 0.00 | 39 | 1007.6 |
| 20260503204600 | 51 | 55 | 3.0 | 19.0 | 0.00 | 0.00 | 0.00 | 36 | 1007.4 |
| 20260503203108 | 51 | 5 | 5.0 | 18.0 | 0.00 | 0.00 | 0.00 | 34 | 1007.6 |
| 20260503201557 | 52 | 25 | 6.0 | 23.0 | 0.00 | 0.00 | 0.00 | 33 | 1007.6 |
| 20260503200053 | 52 | 225 | 5.0 | 18.0 | 0.00 | 0.00 | 0.00 | 32 | 1007.7 |
| 20260503194556 | 53 | 11 | 2.0 | 12.0 | 0.00 | 0.00 | 0.00 | 32 | 1007.8 |
| 20260503193050 | 51 | 279 | 2.0 | 19.0 | 0.00 | 0.00 | 0.00 | 34 | 1008.0 |
| 20260503191543 | 51 | 275 | 7.0 | 16.0 | 0.00 | 0.00 | 0.00 | 34 | 1008.3 |
| 20260503190041 | 50 | 304 | 6.0 | 17.0 | 0.00 | 0.00 | 0.00 | 36 | 1008.4 |